| time (UTC) | temp F | wind direction | speed MPH | gust MPH | rain 1hr in | rain 24hr in | rain mn in | humidity % | barometer mb |
| 20260504035412 | 66 | 150 | 0.0 | 0.0 | 0.00 | 0.00 | 0.00 | 76 | 1018.0 |
| 20260504034908 | 66 | 129 | 0.0 | 0.0 | 0.00 | 0.00 | 0.00 | 76 | 1017.8 |
| 20260504034406 | 66 | 160 | 0.0 | 0.0 | 0.00 | 0.00 | 0.00 | 76 | 1017.9 |
| 20260504033903 | 66 | 158 | 0.0 | 0.0 | 0.00 | 0.00 | 0.00 | 76 | 1017.9 |
| 20260504033400 | 66 | 144 | 1.0 | 1.0 | 0.00 | 0.00 | 0.00 | 75 | 1017.7 |
| 20260504032857 | 66 | 173 | 0.0 | 0.0 | 0.00 | 0.00 | 0.00 | 76 | 1017.8 |
| 20260504032354 | 66 | 192 | 0.0 | 0.0 | 0.00 | 0.00 | 0.00 | 76 | 1017.6 |
| 20260504031850 | 65 | 159 | 0.0 | 0.0 | 0.00 | 0.00 | 0.00 | 76 | 1017.9 |
| 20260504031348 | 64 | 168 | 0.0 | 0.0 | 0.00 | 0.00 | 0.00 | 79 | 1017.9 |
| 20260504030844 | 64 | 171 | 0.0 | 0.0 | 0.00 | 0.00 | 0.00 | 76 | 1017.7 |
| 20260504030342 | 64 | 171 | 0.0 | 0.0 | 0.00 | 0.00 | 0.00 | 75 | 1017.8 |
| 20260504025837 | 65 | 171 | 0.0 | 0.0 | 0.00 | 0.00 | 0.00 | 74 | 1017.8 |
| 20260504025335 | 65 | 171 | 0.0 | 0.0 | 0.00 | 0.00 | 0.00 | 72 | 1017.8 |
| 20260504024831 | 65 | 171 | 0.0 | 0.0 | 0.00 | 0.00 | 0.00 | 73 | 1017.8 |
| 20260504024327 | 65 | 171 | 0.0 | 0.0 | 0.00 | 0.00 | 0.00 | 73 | 1017.6 |
| 20260504023824 | 65 | 171 | 0.0 | 0.0 | 0.00 | 0.00 | 0.00 | 72 | 1017.8 |
| 20260504023321 | 65 | 171 | 0.0 | 0.0 | 0.00 | 0.00 | 0.00 | 70 | 1017.8 |
| 20260504022817 | 66 | 171 | 0.0 | 0.0 | 0.00 | 0.00 | 0.00 | 74 | 1017.9 |
| 20260504022314 | 66 | 171 | 0.0 | 0.0 | 0.00 | 0.00 | 0.00 | 74 | 1017.8 |
| 20260504021810 | 66 | 167 | 0.0 | 0.0 | 0.00 | 0.00 | 0.00 | 73 | 1017.6 |
| 20260504021308 | 66 | 167 | 0.0 | 0.0 | 0.00 | 0.00 | 0.00 | 72 | 1017.6 |
| 20260504020805 | 67 | 167 | 0.0 | 0.0 | 0.00 | 0.00 | 0.00 | 72 | 1017.6 |
| 20260504020302 | 67 | 167 | 0.0 | 0.0 | 0.00 | 0.00 | 0.00 | 72 | 1017.5 |
| 20260504015757 | 68 | 167 | 0.0 | 0.0 | 0.00 | 0.00 | 0.00 | 72 | 1017.4 |
| 20260504015254 | 68 | 165 | 0.0 | 0.0 | 0.00 | 0.00 | 0.00 | 71 | 1017.4 |
| 20260504014750 | 68 | 165 | 0.0 | 0.0 | 0.00 | 0.00 | 0.00 | 70 | 1017.4 |
| 20260504014246 | 68 | 164 | 0.0 | 0.0 | 0.00 | 0.00 | 0.00 | 69 | 1017.2 |
| 20260504013744 | 69 | 170 | 0.0 | 0.0 | 0.00 | 0.00 | 0.00 | 68 | 1017.3 |
| 20260504013242 | 69 | 179 | 0.0 | 0.0 | 0.00 | 0.00 | 0.00 | 69 | 1017.3 |
| 20260504012738 | 69 | 180 | 0.0 | 1.0 | 0.00 | 0.00 | 0.00 | 69 | 1017.0 |
| 20260504012236 | 69 | 181 | 0.0 | 0.0 | 0.00 | 0.00 | 0.00 | 69 | 1017.1 |
| 20260504011732 | 69 | 179 | 0.0 | 0.0 | 0.00 | 0.00 | 0.00 | 70 | 1017.0 |
| 20260504011229 | 69 | 228 | 0.0 | 0.0 | 0.00 | 0.00 | 0.00 | 69 | 1016.9 |
| 20260504010725 | 69 | 173 | 0.0 | 0.0 | 0.00 | 0.00 | 0.00 | 68 | 1017.0 |
| 20260504010221 | 69 | 173 | 0.0 | 0.0 | 0.00 | 0.00 | 0.00 | 68 | 1016.9 |
| 20260504005718 | 69 | 183 | 0.0 | 0.0 | 0.00 | 0.00 | 0.00 | 67 | 1016.7 |
| 20260504005215 | 69 | 179 | 0.0 | 1.0 | 0.00 | 0.00 | 0.00 | 67 | 1017.0 |
| 20260504004713 | 69 | 182 | 0.0 | 1.0 | 0.00 | 0.00 | 0.00 | 66 | 1016.8 |
| 20260504004210 | 69 | 180 | 0.0 | 0.0 | 0.00 | 0.00 | 0.00 | 65 | 1016.7 |
| 20260504003706 | 69 | 180 | 0.0 | 0.0 | 0.00 | 0.00 | 0.00 | 66 | 1016.7 |
| 20260504003203 | 69 | 182 | 0.0 | 1.0 | 0.00 | 0.00 | 0.00 | 66 | 1016.8 |
| 20260504002700 | 69 | 179 | 0.0 | 0.0 | 0.00 | 0.00 | 0.00 | 66 | 1016.8 |
| 20260504002157 | 69 | 185 | 0.0 | 0.0 | 0.00 | 0.00 | 0.00 | 65 | 1016.6 |
| 20260504001655 | 69 | 196 | 0.0 | 0.0 | 0.00 | 0.00 | 0.00 | 64 | 1016.8 |
| 20260504001151 | 69 | 186 | 0.0 | 0.0 | 0.00 | 0.00 | 0.00 | 63 | 1016.8 |
| 20260504000648 | 70 | 151 | 0.0 | 1.0 | 0.00 | 0.00 | 0.00 | 62 | 1016.6 |
| 20260504000145 | 70 | 235 | 0.0 | 1.0 | 0.00 | 0.00 | 0.00 | 61 | 1016.6 |
| 20260503235643 | 70 | 184 | 0.0 | 0.0 | 0.00 | 0.00 | 0.00 | 60 | 1016.6 |
| 20260503235140 | 70 | 212 | 1.0 | 1.0 | 0.00 | 0.00 | 0.00 | 60 | 1016.7 |
| 20260503234638 | 70 | 171 | 1.0 | 1.0 | 0.00 | 0.00 | 0.00 | 61 | 1016.6 |
| 20260503234136 | 70 | 189 | 0.0 | 0.0 | 0.00 | 0.00 | 0.00 | 60 | 1016.7 |
| 20260503233632 | 71 | 231 | 1.0 | 2.0 | 0.00 | 0.00 | 0.00 | 61 | 1016.7 |
| 20260503233128 | 71 | 186 | 0.0 | 1.0 | 0.00 | 0.00 | 0.00 | 60 | 1016.6 |
| 20260503232625 | 71 | 208 | 1.0 | 1.0 | 0.00 | 0.00 | 0.00 | 56 | 1016.7 |
| 20260503232122 | 71 | 175 | 1.0 | 2.0 | 0.00 | 0.00 | 0.00 | 55 | 1016.8 |
| 20260503231620 | 72 | 205 | 1.0 | 1.0 | 0.00 | 0.00 | 0.00 | 54 | 1016.7 |
| 20260503231116 | 72 | 185 | 0.0 | 1.0 | 0.00 | 0.00 | 0.00 | 53 | 1016.6 |
| 20260503230614 | 72 | 177 | 1.0 | 1.0 | 0.00 | 0.00 | 0.00 | 53 | 1016.8 |
| 20260503230111 | 72 | 223 | 1.0 | 1.0 | 0.00 | 0.00 | 0.00 | 52 | 1016.6 |
| 20260503225608 | 73 | 182 | 0.0 | 1.0 | 0.00 | 0.00 | 0.00 | 52 | 1016.7 |
| 20260503225107 | 72 | 194 | 1.0 | 1.0 | 0.00 | 0.00 | 0.00 | 52 | 1016.7 |
| 20260503224605 | 72 | 182 | 1.0 | 2.0 | 0.00 | 0.00 | 0.00 | 51 | 1016.9 |
| 20260503224103 | 72 | 178 | 0.0 | 0.0 | 0.00 | 0.00 | 0.00 | 50 | 1016.6 |
| 20260503223601 | 73 | 194 | 1.0 | 2.0 | 0.00 | 0.00 | 0.00 | 49 | 1016.6 |
| 20260503223056 | 73 | 204 | 0.0 | 1.0 | 0.00 | 0.00 | 0.00 | 50 | 1016.6 |
| 20260503222554 | 73 | 207 | 2.0 | 2.0 | 0.00 | 0.00 | 0.00 | 50 | 1016.6 |
| 20260503222052 | 73 | 191 | 0.0 | 1.0 | 0.00 | 0.00 | 0.00 | 49 | 1016.7 |
| 20260503221550 | 73 | 177 | 0.0 | 1.0 | 0.00 | 0.00 | 0.00 | 49 | 1016.7 |
| 20260503221047 | 73 | 179 | 0.0 | 1.0 | 0.00 | 0.00 | 0.00 | 46 | 1016.5 |
| 20260503220543 | 73 | 169 | 0.0 | 1.0 | 0.00 | 0.00 | 0.00 | 47 | 1016.5 |
| 20260503220040 | 74 | 242 | 1.0 | 2.0 | 0.00 | 0.00 | 0.00 | 47 | 1017.0 |
| 20260503215537 | 74 | 211 | 1.0 | 1.0 | 0.00 | 0.00 | 0.00 | 49 | 1016.7 |
| 20260503215034 | 74 | 180 | 2.0 | 2.0 | 0.00 | 0.00 | 0.00 | 47 | 1016.8 |
| 20260503214533 | 75 | 177 | 0.0 | 1.0 | 0.00 | 0.00 | 0.00 | 47 | 1016.9 |
| 20260503214029 | 75 | 179 | 0.0 | 1.0 | 0.00 | 0.00 | 0.00 | 50 | 1016.9 |
| 20260503213528 | 74 | 178 | 1.0 | 1.0 | 0.00 | 0.00 | 0.00 | 50 | 1016.8 |
| 20260503213024 | 76 | 217 | 1.0 | 2.0 | 0.00 | 0.00 | 0.00 | 45 | 1017.1 |
| 20260503212521 | 76 | 180 | 1.0 | 2.0 | 0.00 | 0.00 | 0.00 | 43 | 1017.0 |
| 20260503212019 | 76 | 196 | 1.0 | 1.0 | 0.00 | 0.00 | 0.00 | 45 | 1017.2 |
| 20260503211515 | 77 | 118 | 2.0 | 2.0 | 0.00 | 0.00 | 0.00 | 38 | 1017.0 |
| 20260503211011 | 78 | 164 | 1.0 | 1.0 | 0.00 | 0.00 | 0.00 | 40 | 1017.2 |
| 20260503210508 | 78 | 178 | 1.0 | 1.0 | 0.00 | 0.00 | 0.00 | 39 | 1017.1 |
| 20260503210004 | 78 | 159 | 0.0 | 0.0 | 0.00 | 0.00 | 0.00 | 35 | 1017.1 |
| 20260503205501 | 78 | 77 | 0.0 | 1.0 | 0.00 | 0.00 | 0.00 | 36 | 1017.2 |
| 20260503204956 | 78 | 42 | 2.0 | 2.0 | 0.00 | 0.00 | 0.00 | 34 | 1017.1 |
| 20260503204454 | 78 | 94 | 1.0 | 2.0 | 0.00 | 0.00 | 0.00 | 36 | 1017.3 |
| 20260503203950 | 77 | 133 | 0.0 | 0.0 | 0.00 | 0.00 | 0.00 | 37 | 1017.3 |
| 20260503203448 | 76 | 81 | 3.0 | 3.0 | 0.00 | 0.00 | 0.00 | 39 | 1017.2 |
| 20260503202944 | 77 | 105 | 0.0 | 1.0 | 0.00 | 0.00 | 0.00 | 39 | 1017.4 |
| 20260503202443 | 77 | 186 | 1.0 | 2.0 | 0.00 | 0.00 | 0.00 | 36 | 1017.5 |
| 20260503201941 | 79 | 77 | 3.0 | 5.0 | 0.00 | 0.00 | 0.00 | 34 | 1017.5 |
| 20260503201438 | 78 | 83 | 2.0 | 3.0 | 0.00 | 0.00 | 0.00 | 36 | 1017.6 |
| 20260503200936 | 78 | 58 | 3.0 | 5.0 | 0.00 | 0.00 | 0.00 | 37 | 1017.6 |
| 20260503200432 | 78 | 102 | 0.0 | 1.0 | 0.00 | 0.00 | 0.00 | 36 | 1017.6 |
| 20260503195928 | 77 | 81 | 0.0 | 1.0 | 0.00 | 0.00 | 0.00 | 38 | 1017.5 |
| 20260503195426 | 77 | 98 | 1.0 | 2.0 | 0.00 | 0.00 | 0.00 | 36 | 1018.0 |
| 20260503194922 | 77 | 155 | 3.0 | 5.0 | 0.00 | 0.00 | 0.00 | 35 | 1018.2 |
| 20260503194419 | 77 | 167 | 0.0 | 0.0 | 0.00 | 0.00 | 0.00 | 37 | 1018.1 |
| 20260503193915 | 77 | 134 | 1.0 | 1.0 | 0.00 | 0.00 | 0.00 | 39 | 1018.2 |
| 20260503193410 | 78 | 163 | 0.0 | 0.0 | 0.00 | 0.00 | 0.00 | 37 | 1018.4 |
| 20260503192906 | 78 | 156 | 1.0 | 1.0 | 0.00 | 0.00 | 0.00 | 37 | 1018.4 |
| 20260503192403 | 77 | 245 | 1.0 | 2.0 | 0.00 | 0.00 | 0.00 | 38 | 1018.6 |
| 20260503191859 | 77 | 77 | 2.0 | 3.0 | 0.00 | 0.00 | 0.00 | 38 | 1018.7 |
| 20260503191356 | 77 | 147 | 1.0 | 2.0 | 0.00 | 0.00 | 0.00 | 35 | 1018.7 |
| 20260503190852 | 78 | 47 | 3.0 | 5.0 | 0.00 | 0.00 | 0.00 | 35 | 1018.8 |
| 20260503190350 | 77 | 137 | 1.0 | 1.0 | 0.00 | 0.00 | 0.00 | 37 | 1019.0 |
| 20260503185846 | 77 | 35 | 4.0 | 5.0 | 0.00 | 0.00 | 0.00 | 34 | 1019.0 |
| 20260503185342 | 77 | 88 | 1.0 | 1.0 | 0.00 | 0.00 | 0.00 | 36 | 1019.3 |
| 20260503184837 | 77 | 133 | 1.0 | 1.0 | 0.00 | 0.00 | 0.00 | 36 | 1019.3 |
| 20260503184333 | 77 | 152 | 1.0 | 2.0 | 0.00 | 0.00 | 0.00 | 33 | 1019.4 |
| 20260503183829 | 76 | 52 | 3.0 | 3.0 | 0.00 | 0.00 | 0.00 | 34 | 1019.2 |
| 20260503183326 | 76 | 89 | 1.0 | 2.0 | 0.00 | 0.00 | 0.00 | 34 | 1019.4 |
| 20260503182824 | 76 | 80 | 2.0 | 3.0 | 0.00 | 0.00 | 0.00 | 38 | 1019.6 |
| 20260503182323 | 77 | 140 | 0.0 | 1.0 | 0.00 | 0.00 | 0.00 | 34 | 1019.4 |
| 20260503181820 | 75 | 89 | 1.0 | 1.0 | 0.00 | 0.00 | 0.00 | 36 | 1019.5 |
| 20260503181317 | 75 | 216 | 1.0 | 2.0 | 0.00 | 0.00 | 0.00 | 35 | 1019.7 |
| 20260503180813 | 75 | 44 | 3.0 | 3.0 | 0.00 | 0.00 | 0.00 | 35 | 1019.9 |
| 20260503180311 | 76 | 86 | 3.0 | 3.0 | 0.00 | 0.00 | 0.00 | 33 | 1019.7 |
| 20260503175807 | 75 | 147 | 1.0 | 1.0 | 0.00 | 0.00 | 0.00 | 36 | 1019.7 |
| 20260503175305 | 76 | 125 | 1.0 | 1.0 | 0.00 | 0.00 | 0.00 | 36 | 1019.8 |
| 20260503174800 | 76 | 136 | 0.0 | 1.0 | 0.00 | 0.00 | 0.00 | 36 | 1019.7 |
| 20260503174259 | 75 | 79 | 0.0 | 1.0 | 0.00 | 0.00 | 0.00 | 37 | 1019.6 |
| 20260503173754 | 75 | 127 | 2.0 | 3.0 | 0.00 | 0.00 | 0.00 | 36 | 1019.5 |
| 20260503173250 | 74 | 75 | 1.0 | 2.0 | 0.00 | 0.00 | 0.00 | 37 | 1019.7 |
| 20260503172747 | 74 | 130 | 1.0 | 2.0 | 0.00 | 0.00 | 0.00 | 37 | 1019.9 |
| 20260503172244 | 75 | 52 | 5.0 | 6.0 | 0.00 | 0.00 | 0.00 | 35 | 1019.9 |
| 20260503171741 | 75 | 160 | 1.0 | 2.0 | 0.00 | 0.00 | 0.00 | 39 | 1020.0 |
| 20260503171238 | 75 | 112 | 3.0 | 6.0 | 0.00 | 0.00 | 0.00 | 38 | 1019.9 |
| 20260503170735 | 74 | 86 | 1.0 | 2.0 | 0.00 | 0.00 | 0.00 | 39 | 1019.9 |
| 20260503170231 | 74 | 102 | 3.0 | 3.0 | 0.00 | 0.00 | 0.00 | 40 | 1020.2 |
| 20260503160153 | 73 | 105 | 3.0 | 5.0 | 0.00 | 0.00 | 0.00 | 42 | 1020.7 |
| 20260503150623 | 70 | 32 | 1.0 | 1.0 | 0.00 | 0.00 | 0.00 | 55 | 1020.9 |
| 20260503150119 | 70 | 64 | 1.0 | 1.0 | 0.00 | 0.00 | 0.00 | 56 | 1021.0 |
| 20260503131013 | 66 | 98 | 3.0 | 5.0 | 0.00 | 0.00 | 0.00 | 61 | 1020.1 |
| 20260503130511 | 66 | 89 | 0.0 | 1.0 | 0.00 | 0.00 | 0.00 | 63 | 1020.1 |
| 20260503110401 | 58 | 130 | 0.0 | 0.0 | 0.00 | 0.00 | 0.00 | 81 | 1019.0 |
| 20260503090252 | 58 | 147 | 0.0 | 0.0 | 0.00 | 0.00 | 0.00 | 78 | 1018.7 |
| 20260503081220 | 60 | 122 | 1.0 | 1.0 | 0.00 | 0.00 | 0.00 | 71 | 1018.1 |
| 20260503080715 | 60 | 123 | 0.0 | 1.0 | 0.00 | 0.00 | 0.00 | 72 | 1018.2 |
| 20260503080213 | 60 | 135 | 1.0 | 1.0 | 0.00 | 0.00 | 0.00 | 73 | 1018.2 |
| 20260503072649 | 60 | 169 | 0.0 | 0.0 | 0.00 | 0.00 | 0.00 | 72 | 1017.9 |
| 20260503072146 | 60 | 172 | 0.0 | 1.0 | 0.00 | 0.00 | 0.00 | 73 | 1018.1 |
| 20260503071643 | 60 | 154 | 0.0 | 0.0 | 0.00 | 0.00 | 0.00 | 73 | 1017.9 |
| 20260503071139 | 60 | 139 | 1.0 | 1.0 | 0.00 | 0.00 | 0.00 | 72 | 1018.0 |
| 20260503070636 | 60 | 146 | 1.0 | 1.0 | 0.00 | 0.00 | 0.00 | 72 | 1017.9 |
| 20260503070135 | 60 | 137 | 1.0 | 2.0 | 0.00 | 0.00 | 0.00 | 72 | 1017.7 |
| 20260503055049 | 61 | 132 | 0.0 | 0.0 | 0.00 | 0.00 | 0.00 | 68 | 1017.7 |
| 20260503054545 | 61 | 132 | 0.0 | 0.0 | 0.00 | 0.00 | 0.00 | 70 | 1017.5 |
| 20260503054043 | 62 | 148 | 0.0 | 0.0 | 0.00 | 0.00 | 0.00 | 69 | 1017.6 |
| 20260503053541 | 62 | 84 | 1.0 | 1.0 | 0.00 | 0.00 | 0.00 | 68 | 1017.8 |
| 20260503053038 | 62 | 106 | 0.0 | 0.0 | 0.00 | 0.00 | 0.00 | 69 | 1017.5 |
| 20260503052535 | 62 | 122 | 0.0 | 1.0 | 0.00 | 0.00 | 0.00 | 68 | 1017.7 |
| 20260503052031 | 62 | 89 | 1.0 | 1.0 | 0.00 | 0.00 | 0.00 | 67 | 1017.8 |
| 20260503051527 | 62 | 82 | 0.0 | 1.0 | 0.00 | 0.00 | 0.00 | 66 | 1017.6 |
| 20260503051025 | 62 | 148 | 1.0 | 1.0 | 0.00 | 0.00 | 0.00 | 68 | 1017.5 |
| 20260503050520 | 62 | 112 | 0.0 | 1.0 | 0.00 | 0.00 | 0.00 | 67 | 1017.6 |
| 20260503050018 | 62 | 136 | 1.0 | 1.0 | 0.00 | 0.97 | 0.97 | 69 | 1017.7 |
| 20260503045515 | 62 | 126 | 0.0 | 1.0 | 0.00 | 0.97 | 0.97 | 68 | 1017.5 |
| 20260503045012 | 63 | 137 | 1.0 | 1.0 | 0.00 | 0.97 | 0.97 | 66 | 1017.4 |
| 20260503044509 | 63 | 129 | 0.0 | 1.0 | 0.00 | 0.97 | 0.97 | 66 | 1017.4 |
| 20260503044007 | 63 | 123 | 1.0 | 1.0 | 0.00 | 0.97 | 0.97 | 66 | 1017.5 |
| 20260503043502 | 63 | 95 | 1.0 | 1.0 | 0.00 | 0.97 | 0.97 | 64 | 1017.2 |
| 20260503042959 | 63 | 91 | 0.0 | 1.0 | 0.00 | 0.97 | 0.97 | 66 | 1017.2 |
| 20260503042456 | 63 | 160 | 2.0 | 2.0 | 0.00 | 0.97 | 0.97 | 66 | 1017.3 |
| 20260503041952 | 64 | 157 | 0.0 | 0.0 | 0.00 | 0.97 | 0.97 | 65 | 1017.2 |
| 20260503041449 | 64 | 106 | 1.0 | 1.0 | 0.00 | 0.97 | 0.97 | 64 | 1017.0 |
| 20260503040947 | 64 | 132 | 0.0 | 1.0 | 0.00 | 0.97 | 0.97 | 65 | 1017.0 |
| 20260503040444 | 64 | 155 | 1.0 | 1.0 | 0.00 | 0.97 | 0.97 | 65 | 1017.2 |
| 20260503035941 | 64 | 117 | 1.0 | 1.0 | 0.00 | 0.97 | 0.97 | 65 | 1016.9 |